Regional Weather Roundup
Issued by NWS Grand Forks, ND

Home | Current Version | Previous Version | Text Only | Print | Product List | Glossary Off
Versions: 1 2 3 4 5 6 7 8 9 10 11 12 13 14 15 16 17 18 19 20 21 22 23 24 25 26 27 28 29 30 31 32 33 34 35 36 37 38 39 40 41 42 43 44 45 46 47 48 49 50

000
ASUS43 KFGF 020231
RWRFGF
PRAIRIE TO PINES  WEATHER ROUNDUP
NATIONAL WEATHER SERVICE EASTERN NORTH DAKOTA/GRAND FORKS ND
800 PM CST THU DEC 01 2016

 **SATELLITE DATA USED TO AUGMENT SKY COVER AT AUTOMATED STATIONS**
 *****  WEATHER ACROSS EASTERN NORTH DAKOTA  *****

CITY           SKY/WX    TMP DP  RH WIND       PRES   REMARKS
GRAND FORKS    CLOUDY    30  23  75 N14       30.06R WCI  19
GRAND FRKS AFB CLOUDY    28  24  84 N9        30.06R WCI  19
GRAND FRKS NWS   N/A     28 N/A N/A VRB2        N/A
DEVILS LAKE    CLOUDY    27  23  85 N10       30.06R WCI  17
FARGO          CLOUDY    30  23  75 N12       30.05R WCI  20
WAHPETON ARPT  CLOUDY    30  25  80 N12       30.04S WCI  21
$$

 ***** WEATHER ACROSS CENTRAL AND WESTERN NORTH DAKOTA  *****

CITY           SKY/WX    TMP DP  RH WIND       PRES   REMARKS
BISMARCK       CLOUDY    28  24  85 NE5       30.07R WCI  23
MINOT          CLOUDY    28  22  78 CALM      30.06R
JAMESTOWN      CLOUDY    28  22  78 N6        30.03R WCI  22
MINOT AFB      CLOUDY    27  22  81 SW2       30.05R
GARRISON         N/A     27  22  81 NE3       30.05R
WILLISTON      CLOUDY    29  24  82 SE3       30.04R
DICKINSON      CLOUDY    25  22  88 CALM      30.00R
HETTINGER      CLOUDY    25  22  88 NE3       30.02R
$$

 *****  OTHER AIRPORT OBSERVATIONS IN OUR AREA  *****

CITY           SKY/WX    TMP DP  RH WIND       PRES   REMARKS
WALHALLA         N/A     28  28 100 N9        30.08R WCI  20
GRAFTON AIRPOR CLOUDY    28  25  86 N16       30.08S WCI  17
VALLEY CITY AR CLOUDY    27  25  93 NE10      30.06R WCI  17
CANDO          CLOUDY    27  25  93 N6        30.09R WCI  20
CAVALIER APRT    N/A     28  25  86 N12G17    30.07S WCI  18
GWINNER        CLOUDY    30  28  93 N8        30.05R WCI  23
SHEYENNE NWR     N/A     28  23  81 N5        29.95S WCI  23
ROLLA          CLOUDY    25  25 100 NW6       30.07R WCI  18
 ***** THE ABOVE OBSERVATIONS ARE NON NWS ARE NOT QUALITY
       CONTROLLED AND MAY MIS-REPORT RAIN FOR SNOW...
$$

  *****  WEATHER ACROSS NORTHERN MINNESOTA  *****

CITY           SKY/WX    TMP DP  RH WIND       PRES   REMARKS
FLAG ISLAND    CLOUDY    25  19  80 N12       30.01R WCI  14
WARROAD        CLOUDY    23  19  86 NW6       30.03R WCI  16
ROSEAU         CLOUDY    27  21  80 NW7       30.03R WCI  19
HALLOCK        CLOUDY    28  25  86 N14       30.06R WCI  17
THF RVR FALLS  CLOUDY    27  22  81 N12       30.03R WCI  17
BAUDETTE       CLOUDY    26  21  81 NW9       29.99R WCI  17
WASKISH        CLOUDY    27  21  80 NW5       30.00R WCI  21
CROOKSTON      CLOUDY    28  25  86 N13       30.06R WCI  18
STEPHEN NDAWN    N/A     28  25  86 N10         N/A  WCI  19
GREENBUSH NDAW   N/A     28  25  86 N7          N/A  WCI  21
$$
  *****  WEATHER ACROSS CENTRAL AND WEST MINNESOTA  *****

CITY           SKY/WX    TMP DP  RH WIND       PRES   REMARKS
FOSSTON        CLOUDY    25  21  86 NW8       30.02R WCI  16
BEMIDJI        CLOUDY    26  21  83 NW9       29.99S WCI  16
PARK RAPIDS    CLOUDY    28  20  71 N8        29.98R WCI  20
ELBOW LAKE     CLOUDY    29  25  84 NW13      30.02R WCI  19
WADENA         CLOUDY    28  23  80 N7        29.99S WCI  21
DETROIT LAKES  CLOUDY    28  25  86 N6        30.02R WCI  22
MOORHEAD       CLOUDY    28  25  86 N14       30.05S WCI  17
FERGUS FALLS   CLOUDY    28  25  86 N8        30.06S WCI  20
MORRIS MN      CLOUDY    30  28  93 N10       30.01R WCI  21
STAPLES        CLOUDY    28  23  80 NW10      29.99R WCI  19
$$
  *****  WEATHER ELSEWHERE ACROSS MINNESOTA  *****

CITY           SKY/WX    TMP DP  RH WIND       PRES   REMARKS
DULUTH         CLOUDY    28  21  75 NW14G20   29.93R WCI  17
INTRNTL FALLS  CLOUDY    27  21  78 NW9       29.97R WCI  18
ELY            CLOUDY    25  21  86 NW5       29.92S WCI  19
CLOQUET        CLOUDY    28  19  69 NW7       29.95R WCI  21
WHEATON        CLOUDY   N/A N/A N/A NW8       30.05S
BRAINERD       CLOUDY    30  23  75 NW13      29.98R WCI  20
HIBBING        CLOUDY    26  21  81 NW9       29.95R WCI  17
ALEXANDRIA     CLOUDY    30  24  78 NW7       30.00R WCI  23
SAINT CLOUD    CLOUDY    32  25  75 N7        29.98R
MINNEAPOLIS    CLOUDY    35  26  69 NW9       29.97R
$$

  *****  WEATHER ACROSS SOUTH DAKOTA  *****

CITY           SKY/WX    TMP DP  RH WIND       PRES   REMARKS
SIOUX FALLS    CLOUDY    33  31  92 NW6       30.02R
BROOKINGS      CLOUDY    31  29  92 N7        30.00S WCI  24
WATERTOWN      CLOUDY    29  26  89 N9        30.00R WCI  20
HURON          CLOUDY    32  31  96 NW5       30.04R
SISSETON         N/A     30  27  88 N12       30.03R WCI  20
ABERDEEN       CLOUDY    30  25  81 N7        30.05R WCI  23
MITCHELL       CLOUDY    33  31  92 NW5       30.05R
PIERRE         CLOUDY    29  27  92 W3        30.03R
MOBRIDGE       FLURRIES  30  26  85 NE5       30.02R
RAPID CITY     CLOUDY    22  17  81 N3        29.99R
$$

  *****  SOME WEATHER IN NEARBY STATES *****

CITY           SKY/WX    TMP DP  RH WIND       PRES   REMARKS
GLASGOW MT     CLOUDY    26  23  88 VRB6      29.99R WCI  19
GREAT FALLS MT LGT SNOW  30  29  96 NW5       30.04R FOG
CHEYENNE WY    CLOUDY    25  15  66 W3        29.96R
SCOTTSBLUFF NE PTCLDY    23  11  60 NE5       29.98R WCI  17
OMAHA NE       CLOUDY    35  28  75 N3        30.06R
DES MOINES IA  CLOUDY    36  29  75 W7        30.05R
DAVENPORT IA   CLOUDY    37  32  82 W12       30.01R
CHICAGO IL     CLOUDY    37  32  82 W13       29.96R
EAU CLAIRE WI  CLOUDY    34  27  75 NW9       29.94R
LA CROSSE WI   CLOUDY    39  32  76 W8        29.95R
$$

  *****  SOME NATIONAL WEATHER *****

CITY           SKY/WX    TMP DP  RH WIND       PRES   REMARKS
LA GUARDIA NY  PTCLDY    48  27  44 W16G28    29.81R
RALEIGH NC     CLEAR     47  34  60 CALM      29.96R
ATLANTA GA     CLEAR     46  31  55 W6        30.09R
NEW ORLEANS LA PTCLDY    52  44  74 SE3       30.12R
OKLAHOMA CITY  PTCLDY    44  28  53 SE6       29.99R
ALBUQUERQUE NM CLOUDY    37  12  35 E3        29.96F
SALT LAKE CITY MOCLDY    31  26  82 W5        30.09R
LOS ANGELES CA CLEAR     58  52  80 W14       29.93S
BOISE ID       CLEAR     34  26  72 NW9       30.20R
SEATTLE WA     LGT RAIN  45  41  86 S8        30.33S
$$

*** WEATHER ACROSS MANITOBA...SASKATCHEWAN AND ONTARIO ***
                ***ONTARIO***

CITY           SKY/WX    TMP DP  RH WIND       PRES   REMARKS
GERALDTON      LGT SNOW  27  25  93 NW9       29.76R WCI  17
THUNDER BAY    FLURRIES  27  21  80 NW9       29.88R WCI  17
SIOUX LOOKOUT  FLURRIES  19  18  93 N5        29.96R WCI  13
TORONTO        MOCLDY    41  34  75 SW15G22   29.70S
BIG TROUT LK   CLOUDY    21  19  93 N8        30.00R FOG     WCI  12
PICKLE LAKE    FLURRIES  19  16  86 NW5       29.92S WCI  13
DRYDEN         CLOUDY    19  18  93 N6        29.96R WCI  11
KENORA         FLURRIES  19  18  93 N6        29.99R WCI  11
$$
                *** MANITOBA***

CITY           SKY/WX    TMP DP  RH WIND       PRES   REMARKS
BRANDON        CLOUDY    28  23  80 NW3       30.07R
DAUPHIN        CLOUDY    28  27  93 CALM      30.09R
ISLAND LAKE    FLURRIES  18  16  93 NE6       30.10R WCI   9
PILOT MOUND      N/A     25  23  93 N2          N/A
THE PAS        LGT SNOW  25  21  86 CALM      30.07R
THOMPSON       FLURRIES  19  18  93 NE5       30.11  WCI  13
WINNIPEG       CLOUDY    27  23  86 N13       30.07R WCI  16
LYNN LAKE      CLOUDY    18  18 100 SE5       30.06S WCI  11
CHURCHILL      FLURRIES  19  18  93 CALM      30.17R
GILLAM         LGT SNOW  18  16  93 N5        30.14R WCI  11
$$
                ***SASKATCHEWAN***

CITY           SKY/WX    TMP DP  RH WIND       PRES   REMARKS
ESTEVAN        FLURRIES  27  25  93 SE3       30.05R
KINDERSLEY     LGT SNOW  21  21 100 SW3       29.99R
LLOYDMINSTER   CLOUDY    21  19  93 NW5       30.03S WCI  15
PRINCE ALBERT  FLURRIES  27  25  93 N2        30.06R
REGINA         CLOUDY    28  27  93 SE8       30.02R WCI  20
YORKTON        CLOUDY    30  25  80 SW5       30.05R
N. BATTLEFORD  CLOUDY    25  25 100 VRB2      30.06S
LA RONGE       FRZ DRZL  25  23  93 SE3       30.06S FOG
SASKATOON      CLOUDY    27  23  86 N6        30.05R WCI  20
SWIFT CURRENT  CLOUDY    21  21 100 NW13      29.97S WCI   9
$$
NOTE: THESE ARE AUTOMATED STATIONS WITH LIMITED QUALITY CONTROL
      "FAIR" INDICATES FEW OR NO CLOUDS BELOW 12,000 FEET WITH NO
      SIGNIFICANT WEATHER AND/OR OBSTRUCTIONS TO VISIBILITY.
      SKY/WX - SKY CONDITION AND SIGNIFICANT WEATHER.
      TMP - AIR TEMPERATURE.    DP   - DEWPOINT TEMPERATURE.
      RH  - RELATIVE HUMIDITY.  PRES - PRESSURE.
      HX  - HEAT INDEX.         WCI  - WIND CHILL INDEX.
$




USA.gov is the U.S. government's official web portal to all federal, state and local government web resources and services.